• In Deutschland
  • Länderverzeichnis
  • Für 7 Tage
  • Wassertemperatur
  • Satellitenkarten
  • Wetterkarte
  • Widgets
  • user-avatar
    Anmelden

    Stündliche Wetter Ludwigsfelde

    Heute, 20 Juli, Freitag

    Zeit Temperatur Niederschläge Wind Luftdruck Luftfeuchtigkeit
    00:00 +19°C° 0 mm 1 m/S 758 mmHg 72%
    01:00 +18°C° 0 mm 1 m/S 758 mmHg 73%
    02:00 +18°C° 0 mm 1 m/S 758 mmHg 74%
    03:00 +16°C° 0 mm 1 m/S 758 mmHg 75%
    04:00 +16°C° 0 mm 1 m/S 758 mmHg 76%
    05:00 +18°C° 0 mm 1 m/S 758 mmHg 72%
    06:00 +20°C° 0 mm 1 m/S 758 mmHg 67%
    07:00 +22°C° 0 mm 1 m/S 757 mmHg 62%
    08:00 +23°C° 0 mm 1 m/S 757 mmHg 56%
    09:00 +25°C° 0 mm 2 m/S 757 mmHg 51%
    10:00 +26°C° 0 mm 2 m/S 757 mmHg 45%
    11:00 +27°C° 0 mm 2 m/S 757 mmHg 43%
    12:00 +27°C° 0 mm 2 m/S 757 mmHg 42%
    13:00 +27°C° 0 mm 3 m/S 757 mmHg 41%
    14:00 +27°C° 0 mm 2 m/S 756 mmHg 41%
    15:00 +27°C° 0 mm 2 m/S 756 mmHg 41%
    16:00 +27°C° 0 mm 2 m/S 756 mmHg 41%
    17:00 +27°C° 0 mm 2 m/S 756 mmHg 44%
    18:00 +26°C° 0 mm 1 m/S 756 mmHg 47%
    19:00 +25°C° 0 mm 1 m/S 756 mmHg 50%
    20:00 +24°C° 0 mm 1 m/S 756 mmHg 54%
    21:00 +21°C° 0 mm 2 m/S 756 mmHg 57%
    22:00 +19°C° 0 mm 2 m/S 756 mmHg 60%
    23:00 +19°C° 0 mm 2 m/S 756 mmHg 63%

    Morgen, 21 Juli, Samstag

    Zeit Temperatur Niederschläge Wind Luftdruck Luftfeuchtigkeit
    00:00 +18°C° 0 mm 2 m/S 756 mmHg 65%
    01:00 +18°C° 0 mm 1 m/S 756 mmHg 68%
    02:00 +18°C° 0 mm 1 m/S 756 mmHg 70%
    03:00 +16°C° 0 mm 1 m/S 756 mmHg 72%
    04:00 +16°C° 0 mm 1 m/S 755 mmHg 74%
    05:00 +18°C° 0 mm 1 m/S 755 mmHg 70%
    06:00 +20°C° 0 mm 1 m/S 755 mmHg 66%
    07:00 +20°C° 0 mm 2 m/S 755 mmHg 62%
    08:00 +23°C° 0 mm 2 m/S 755 mmHg 56%
    09:00 +25°C° 0 mm 1 m/S 755 mmHg 50%
    10:00 +26°C° 0 mm 1 m/S 755 mmHg 43%
    11:00 +27°C° 0 mm 2 m/S 755 mmHg 40%
    12:00 +28°C° 0 mm 2 m/S 755 mmHg 37%
    13:00 +29°C° 0 mm 2 m/S 755 mmHg 34%
    14:00 +29°C° 0 mm 2 m/S 755 mmHg 34%
    15:00 +29°C° 0 mm 2 m/S 754 mmHg 33%
    16:00 +29°C° 0 mm 2 m/S 754 mmHg 33%
    17:00 +28°C° 0 mm 2 m/S 754 mmHg 37%
    18:00 +27°C° 0 mm 2 m/S 754 mmHg 42%
    19:00 +26°C° 0 mm 2 m/S 754 mmHg 47%
    20:00 +25°C° 0 mm 2 m/S 755 mmHg 50%
    21:00 +23°C° 0 mm 2 m/S 755 mmHg 53%
    22:00 +21°C° 0 mm 2 m/S 755 mmHg 57%
    23:00 +20°C° 0 mm 2 m/S 755 mmHg 60%

    übermorgen, 22 Juli, Sonntag

    Zeit Temperatur Niederschläge Wind Luftdruck Luftfeuchtigkeit
    00:00 +20°C° 0 mm 2 m/S 755 mmHg 63%
    01:00 +19°C° 0 mm 2 m/S 755 mmHg 67%
    02:00 +19°C° 0 mm 2 m/S 755 mmHg 69%
    03:00 +19°C° 0 mm 1 m/S 755 mmHg 71%
    04:00 +19°C° 0 mm 1 m/S 755 mmHg 73%
    05:00 +20°C° 0 mm 1 m/S 755 mmHg 69%
    06:00 +21°C° 0 mm 1 m/S 755 mmHg 65%
    07:00 +22°C° 0 mm 1 m/S 755 mmHg 61%
    08:00 +24°C° 0 mm 1 m/S 755 mmHg 55%
    09:00 +26°C° 0 mm 1 m/S 755 mmHg 48%
    10:00 +28°C° 0 mm 1 m/S 755 mmHg 42%
    11:00 +28°C° 0 mm 2 m/S 755 mmHg 40%
    12:00 +29°C° 0 mm 2 m/S 754 mmHg 37%
    13:00 +30°C° 0 mm 3 m/S 754 mmHg 35%
    14:00 +30°C° 0 mm 3 m/S 754 mmHg 34%
    15:00 +30°C° 0 mm 3 m/S 754 mmHg 34%
    16:00 +30°C° 0 mm 3 m/S 753 mmHg 34%
    17:00 +29°C° 0 mm 2 m/S 754 mmHg 38%
    18:00 +28°C° 0 mm 2 m/S 754 mmHg 43%
    19:00 +27°C° 0 mm 2 m/S 754 mmHg 47%
    20:00 +26°C° 0 mm 2 m/S 754 mmHg 50%
    21:00 +24°C° 0 mm 2 m/S 754 mmHg 53%
    22:00 +23°C° 0 mm 2 m/S 755 mmHg 56%
    23:00 +22°C° 0 mm 1 m/S 755 mmHg 59%

    23 Juli, Montag

    Zeit Temperatur Niederschläge Wind Luftdruck Luftfeuchtigkeit
    00:00 +22°C° 0 mm 1 m/S 754 mmHg 61%
    01:00 +21°C° 0 mm 1 m/S 754 mmHg 64%
    02:00 +21°C° 0 mm 1 m/S 755 mmHg 66%
    03:00 +21°C° 0 mm 1 m/S 755 mmHg 67%
    04:00 +18°C° 0 mm 0 m/S 755 mmHg 69%
    05:00 +19°C° 0 mm 0 m/S 755 mmHg 67%
    06:00 +22°C° 0 mm 1 m/S 755 mmHg 65%
    07:00 +23°C° 0 mm 1 m/S 755 mmHg 62%
    08:00 +24°C° 0 mm 1 m/S 755 mmHg 59%
    09:00 +25°C° 0 mm 1 m/S 755 mmHg 57%
    10:00 +26°C° 0 mm 2 m/S 756 mmHg 54%
    11:00 +27°C° 0 mm 2 m/S 755 mmHg 50%
    12:00 +28°C° 0 mm 2 m/S 755 mmHg 46%
    13:00 +30°C° 0 mm 2 m/S 755 mmHg 43%
    14:00 +30°C° 0 mm 3 m/S 755 mmHg 43%
    15:00 +30°C° 0 mm 3 m/S 755 mmHg 43%
    16:00 +29°C° 0 mm 3 m/S 755 mmHg 44%
    17:00 +29°C° 0 mm 3 m/S 755 mmHg 47%
    18:00 +28°C° 0 mm 3 m/S 755 mmHg 51%
    19:00 +27°C° 0 mm 2 m/S 755 mmHg 55%
    20:00 +25°C° 0 mm 2 m/S 756 mmHg 61%
    21:00 +24°C° 0 mm 2 m/S 756 mmHg 67%
    22:00 +21°C° 0 mm 2 m/S 756 mmHg 73%
    23:00 +21°C° 0 mm 1 m/S 756 mmHg 76%

    24 Juli, Dienstag

    Zeit Temperatur Niederschläge Wind Luftdruck Luftfeuchtigkeit
    00:00 +21°C° 0 mm 1 m/S 756 mmHg 79%
    01:00 +20°C° 0 mm 1 m/S 756 mmHg 82%
    02:00 +20°C° 0 mm 1 m/S 756 mmHg 84%
    03:00 +20°C° 0 mm 1 m/S 756 mmHg 85%
    04:00 +19°C° 0 mm 1 m/S 756 mmHg 87%
    05:00 +19°C° 0 mm 2 m/S 756 mmHg 83%
    06:00 +20°C° 0 mm 2 m/S 756 mmHg 79%
    07:00 +21°C° 0 mm 2 m/S 757 mmHg 75%
    08:00 +24°C° 0 mm 2 m/S 757 mmHg 69%
    09:00 +25°C° 0 mm 2 m/S 756 mmHg 63%
    10:00 +27°C° 0 mm 2 m/S 756 mmHg 57%
    11:00 +27°C° 0 mm 3 m/S 756 mmHg 54%
    12:00 +28°C° 0 mm 3 m/S 756 mmHg 52%
    13:00 +29°C° 0 mm 3 m/S 755 mmHg 50%
    14:00 +29°C° 0 mm 3 m/S 755 mmHg 49%
    15:00 +29°C° 0 mm 3 m/S 755 mmHg 48%
    16:00 +29°C° 0 mm 3 m/S 755 mmHg 48%
    17:00 +28°C° 0 mm 3 m/S 755 mmHg 52%
    18:00 +27°C° 0 mm 3 m/S 755 mmHg 56%
    19:00 +26°C° 0 mm 2 m/S 755 mmHg 61%
    20:00 +25°C° 0 mm 2 m/S 755 mmHg 66%
    21:00 +23°C° 0 mm 2 m/S 755 mmHg 71%
    22:00 +21°C° 0 mm 2 m/S 755 mmHg 77%
    23:00 +20°C° 0 mm 2 m/S 755 mmHg 80%

    25 Juli, Mittwoch

    Zeit Temperatur Niederschläge Wind Luftdruck Luftfeuchtigkeit
    00:00 +19°C° 0 mm 2 m/S 755 mmHg 83%
    01:00 +20°C° 0 mm 1 m/S 755 mmHg 87%
    02:00 +19°C° 0 mm 1 m/S 755 mmHg 88%
    03:00 +19°C° 0 mm 1 m/S 755 mmHg 90%
    04:00 +18°C° 0 mm 1 m/S 755 mmHg 92%
    05:00 +19°C° 0 mm 1 m/S 755 mmHg 86%
    06:00 +21°C° 0 mm 1 m/S 755 mmHg 80%
    07:00 +22°C° 0 mm 1 m/S 756 mmHg 75%
    08:00 +24°C° 0 mm 1 m/S 756 mmHg 67%
    09:00 +25°C° 0 mm 2 m/S 755 mmHg 59%
    10:00 +27°C° 0 mm 2 m/S 755 mmHg 52%
    11:00 +28°C° 0 mm 2 m/S 755 mmHg 47%
    12:00 +29°C° 0 mm 2 m/S 755 mmHg 42%
    13:00 +30°C° 0 mm 2 m/S 754 mmHg 38%
    14:00 +30°C° 0 mm 2 m/S 754 mmHg 37%
    15:00 +31°C° 0 mm 2 m/S 754 mmHg 35%
    16:00 +31°C° 0 mm 2 m/S 754 mmHg 34%
    17:00 +30°C° 0 mm 2 m/S 754 mmHg 39%
    18:00 +29°C° 0 mm 2 m/S 754 mmHg 44%
    19:00 +28°C° 0 mm 2 m/S 754 mmHg 48%
    20:00 +26°C° 0 mm 2 m/S 754 mmHg 54%
    21:00 +24°C° 0 mm 2 m/S 754 mmHg 59%
    22:00 +23°C° 0 mm 2 m/S 754 mmHg 64%
    23:00 +21°C° 0 mm 2 m/S 754 mmHg 67%
    Mehr zeigen